EW7001 Weather Reports


Display with metric or nautical units.
time (UTC)temp
F
wind
direction
speed
MPH
gust
MPH
rain 1hr
in
rain 24hr
in
rain mn
in
humidity
%
barometer
mb
20260508174519 61 269 4.0 12.0 0.00 0.57 0.00 35 1009.4
20260508173014 61 336 8.0 13.0 0.00 0.57 0.00 38 1009.4
20260508171540 60 303 4.0 13.0 0.00 0.57 0.00 42 1009.6
20260508170033 60 303 6.0 14.0 0.00 0.57 0.00 42 1009.6
20260508164501 60 317 6.0 12.0 0.00 0.57 0.57 42 1009.7
20260508163059 59 340 4.0 14.0 0.00 0.57 0.57 44 1009.7
20260508161553 60 333 6.0 11.0 0.00 0.57 0.57 45 1009.8
20260508160051 60 346 7.0 13.0 0.00 0.57 0.57 47 1010.0
20260508154552 58 277 6.0 14.0 0.00 0.57 0.57 49 1010.1
20260508153041 58 299 7.0 13.0 0.00 0.57 0.57 50 1010.1
20260508151534 57 318 7.0 11.0 0.00 0.57 0.57 53 1010.1
20260508150034 56 314 6.0 12.0 0.00 0.57 0.57 54 1010.2
20260508144532 56 290 6.0 11.0 0.00 0.59 0.57 57 1010.2
20260508143036 54 299 6.0 13.0 0.00 0.59 0.57 58 1010.0
20260508141544 53 306 5.0 12.0 0.00 0.59 0.57 61 1010.1
20260508140027 53 322 4.0 10.0 0.00 0.59 0.57 63 1010.2
20260508134526 51 279 3.0 8.0 0.00 0.59 0.57 65 1010.1
20260508133026 50 260 3.0 9.0 0.00 0.59 0.57 69 1010.1
20260508131523 48 326 3.0 5.0 0.00 0.59 0.57 72 1009.9
20260508130017 47 303 2.0 8.0 0.00 0.59 0.57 74 1009.7
20260508124514 46 276 4.0 8.0 0.00 0.59 0.57 76 1009.6
20260508123011 44 283 2.0 5.0 0.00 0.59 0.57 79 1009.4
20260508121508 43 283 3.0 6.0 0.00 0.59 0.57 80 1009.2
20260508120002 43 298 3.0 6.0 0.00 0.59 0.57 81 1009.1
20260508114600 42 277 2.0 4.0 0.00 0.59 0.57 82 1009.1
20260508113058 41 314 0.0 3.0 0.00 0.59 0.57 80 1009.0
20260508111558 43 347 1.0 4.0 0.00 0.59 0.57 77 1009.1
20260508110100 45 274 2.0 7.0 0.00 0.59 0.57 76 1009.0
20260508104549 44 269 5.0 9.0 0.00 0.59 0.57 78 1009.1
20260508103102 43 252 3.0 7.0 0.00 0.59 0.57 81 1009.1
20260508101542 43 340 0.0 5.0 0.00 0.59 0.57 78 1009.0
20260508100006 43 269 2.0 6.0 0.00 0.59 0.57 80 1008.9
20260508094503 43 248 3.0 6.0 0.00 0.59 0.57 80 1008.8
20260508093032 43 269 2.0 5.0 0.00 0.59 0.57 80 1008.8
20260508091528 43 290 2.0 6.0 0.00 0.59 0.57 78 1008.7
20260508090016 44 264 3.0 6.0 0.00 0.59 0.57 78 1008.7
20260508084510 45 236 3.0 7.0 0.00 0.59 0.57 77 1008.6
20260508083007 45 269 3.0 6.0 0.00 0.59 0.57 76 1008.6
20260508081503 45 274 3.0 6.0 0.00 0.59 0.57 76 1008.6
20260508080101 45 269 3.0 7.0 0.00 0.59 0.57 75 1008.7
20260508074556 46 284 3.0 7.0 0.00 0.59 0.57 75 1008.8
20260508073055 46 244 3.0 7.0 0.00 0.59 0.57 74 1008.8
20260508071552 47 301 2.0 6.0 0.00 0.59 0.57 74 1008.8
20260508070049 46 269 1.0 4.0 0.00 0.59 0.57 74 1008.8
20260508064552 48 269 3.0 6.0 0.00 0.59 0.57 72 1008.9
20260508063041 48 269 2.0 5.0 0.00 0.59 0.57 73 1008.8
20260508061541 48 274 3.0 6.0 0.00 0.59 0.57 73 1008.7
20260508060018 49 283 3.0 6.0 0.00 0.59 0.57 73 1008.9
20260508054517 49 276 3.0 5.0 0.00 0.59 0.57 71 1008.7
20260508053046 50 274 2.0 6.0 0.00 0.59 0.57 71 1008.8
20260508051551 50 284 2.0 5.0 0.00 0.59 0.57 72 1008.9
20260508050043 50 250 1.0 5.0 0.00 0.59 0.57 70 1008.7
20260508044542 51 286 3.0 6.0 0.00 0.59 0.57 68 1008.5
20260508043044 51 250 2.0 6.0 0.00 0.59 0.57 68 1008.5
20260508041641 51 283 4.0 6.0 0.00 0.59 0.57 67 1008.7
20260508040040 51 261 3.0 6.0 0.00 0.59 0.57 67 1008.9
20260508034537 51 260 2.0 4.0 0.00 0.59 0.57 67 1008.8
20260508033135 51 269 2.0 4.0 0.00 0.59 0.57 65 1008.8
20260508031534 53 301 2.0 4.0 0.00 0.59 0.57 63 1008.7
20260508030027 52 281 1.0 5.0 0.00 0.59 0.57 63 1008.5
20260508024540 53 286 1.0 4.0 0.00 0.59 0.57 62 1008.3
20260508023029 53 290 1.0 3.0 0.00 0.59 0.57 62 1008.1
20260508021525 53 286 2.0 6.0 0.00 0.59 0.57 61 1008.0
20260508020021 54 314 2.0 6.0 0.00 0.59 0.57 59 1007.9
20260508014540 54 322 2.0 4.0 0.00 0.59 0.57 58 1007.8
20260508013020 55 330 3.0 7.0 0.00 0.59 0.57 55 1007.6
20260508011521 57 1 3.0 7.0 0.01 0.59 0.57 53 1007.5
20260508010025 57 304 5.0 11.0 0.02 0.59 0.57 52 1007.5
20260508004522 57 348 4.0 10.0 0.02 0.59 0.57 52 1007.1
20260508003036 57 1 4.0 12.0 0.03 0.59 0.57 52 1007.2
20260508001513 56 303 6.0 14.0 0.02 0.57 0.56 54 1007.4
20260508000011 56 4 5.0 11.0 0.01 0.56 0.56 57 1007.4
20260507234508 55 319 5.0 12.0 0.01 0.56 0.56 60 1007.3
20260507233006 55 330 4.0 9.0 0.00 0.56 0.55 64 1007.3
20260507231505 54 328 4.0 9.0 0.05 0.56 0.55 66 1007.2
20260507230059 53 1 4.0 13.0 0.17 0.56 0.55 67 1007.4
20260507224613 52 53 5.0 10.0 0.48 0.56 0.55 71 1007.5
20260507223057 48 54 5.0 13.0 0.52 0.56 0.55 80 1007.9
20260507221546 49 13 8.0 14.0 0.47 0.51 0.50 72 1008.1
20260507220038 51 20 9.0 19.0 0.35 0.39 0.38 66 1008.1
20260507214532 57 331 8.0 17.0 0.02 0.07 0.05 56 1007.6
20260507213031 57 277 9.0 20.0 0.00 0.05 0.03 60 1007.6
20260507213028 57 274 9.0 20.0 0.00 0.05 0.03 60 1007.6
20260507211527 56 333 7.0 17.0 0.01 0.05 0.03 62 1007.7
20260507210030 55 286 10.0 21.0 0.02 0.05 0.03 63 1007.8
20260507204522 55 276 13.0 22.0 0.02 0.05 0.03 63 1007.7
20260507203020 57 309 9.0 19.0 0.03 0.05 0.03 59 1007.4
20260507201519 56 262 12.0 18.0 0.02 0.04 0.02 63 1007.5
20260507200010 55 288 11.0 19.0 0.01 0.03 0.01 65 1007.6
20260507194503 53 281 9.0 16.0 0.01 0.03 0.01 70 1008.0
20260507193004 53 277 7.0 16.0 0.00 0.02 0.00 72 1008.0
20260507191559 54 264 8.0 20.0 0.00 0.02 0.00 70 1008.0
20260507190057 53 302 7.0 19.0 0.00 0.02 0.00 73 1008.2
20260507184553 53 298 11.0 20.0 0.00 0.02 0.00 75 1008.3
20260507183047 51 253 9.0 17.0 0.00 0.02 0.00 71 1008.5
20260507181544 52 264 10.0 19.0 0.00 0.02 0.00 67 1008.4
20260507180046 52 279 10.0 16.0 0.00 0.02 0.00 70 1008.5